Voltar ao catálogo

DELTA 1 DEB

AtivoPO
NORAD 26828·DEBRIS·🇺🇸 United States

Lançado Jun 12, 1975 de Vandenberg Space Force Base

Loading…

Próximas Passagens (próximas 24 horas)

TLE

AtualizadoSource: Space-Track

Época: Sep 14, 2026, 02:23 UTC

1 26828U 75052KG  26257.09969231  .00063186  00000-0  67225-2 0  9994
2 26828  99.5559 301.8419 0009019  54.1961 334.0249 14.88618940696040

Acompanhe DELTA 1 DEB em tempo real com AllMySat

Download on the App Store